Time,TemperatureF,DewpointF,PressureIn,WindDirection,WindDirectionDegrees,WindSpeedMPH,WindSpeedGustMPH,Humidity,HourlyPrecipIn,Conditions,Clouds,dailyrainin,SoftwareType,DateUTC
2013-05-30 00:01:00,51.7,52.0,30.03,SE,135,2.3,4.7,100,0.00,,,0.00,Rainwise IP-100,2013-05-30 04:01:00,
2013-05-30 00:06:00,51.7,52.0,30.03,SE,135,4.9,7.5,100,0.00,,,0.00,Rainwise IP-100,2013-05-30 04:06:00,
2013-05-30 00:11:00,51.6,52.0,30.03,SE,135,3.5,7.2,100,0.00,,,0.00,Rainwise IP-100,2013-05-30 04:11:00,
2013-05-30 00:16:00,51.5,52.0,30.03,SSE,157,3.0,6.1,100,0.00,,,0.00,Rainwise IP-100,2013-05-30 04:16:00,
2013-05-30 00:18:00,51.5,52.0,30.03,SE,135,3.5,4.4,100,0.00,,,0.00,Rainwise IP-100,2013-05-30 04:18:00,
2013-05-30 00:19:00,51.5,52.0,30.03,SE,135,3.5,4.4,100,0.00,,,0.00,Rainwise IP-100,2013-05-30 04:19:00,
2013-05-30 00:24:00,51.6,52.0,30.03,SSE,157,4.7,4.9,100,0.00,,,0.00,Rainwise IP-100,2013-05-30 04:24:00,
2013-05-30 00:29:00,51.5,52.0,30.02,SSE,157,3.3,5.1,100,0.00,,,0.00,Rainwise IP-100,2013-05-30 04:29:00,
2013-05-30 00:34:00,51.4,51.0,30.02,SSE,157,3.0,5.8,100,0.00,,,0.00,Rainwise IP-100,2013-05-30 04:34:00,
2013-05-30 00:39:00,51.3,51.0,30.02,SSE,157,4.9,5.1,100,0.12,,,0.02,Rainwise IP-100,2013-05-30 04:39:00,
2013-05-30 00:44:00,51.1,51.0,30.02,SSE,157,4.4,5.4,100,0.12,,,0.02,Rainwise IP-100,2013-05-30 04:44:00,
2013-05-30 00:49:00,51.1,51.0,30.02,SSE,157,1.9,5.6,100,0.00,,,0.02,Rainwise IP-100,2013-05-30 04:49:00,
2013-05-30 00:54:00,51.2,51.0,30.02,SE,135,1.9,3.7,100,0.00,,,0.02,Rainwise IP-100,2013-05-30 04:54:00,
2013-05-30 00:59:00,51.3,51.0,30.02,SE,135,0.0,2.6,100,0.00,,,0.02,Rainwise IP-100,2013-05-30 04:59:00,
2013-05-30 01:04:00,51.4,51.0,30.02,SE,135,0.0,1.6,100,0.00,,,0.02,Rainwise IP-100,2013-05-30 05:04:00,
2013-05-30 01:09:00,51.4,51.0,30.01,SSE,157,2.6,3.5,100,0.00,,,0.02,Rainwise IP-100,2013-05-30 05:09:00,
2013-05-30 01:14:00,51.5,52.0,30.02,SE,135,2.6,2.8,100,0.00,,,0.02,Rainwise IP-100,2013-05-30 05:14:00,
2013-05-30 01:19:00,51.5,52.0,30.01,SSE,157,2.6,4.2,100,0.06,,,0.03,Rainwise IP-100,2013-05-30 05:19:00,
2013-05-30 01:24:00,51.3,51.0,30.02,SE,135,0.0,3.5,100,0.06,,,0.03,Rainwise IP-100,2013-05-30 05:24:00,
2013-05-30 01:29:00,51.1,51.0,30.01,SE,135,2.3,2.3,100,0.00,,,0.03,Rainwise IP-100,2013-05-30 05:29:00,
2013-05-30 01:34:00,51.0,51.0,30.01,SE,135,2.3,4.0,100,0.00,,,0.03,Rainwise IP-100,2013-05-30 05:34:00,
2013-05-30 01:39:00,51.0,51.0,30.01,SE,135,0.0,3.3,100,0.00,,,0.03,Rainwise IP-100,2013-05-30 05:39:00,
2013-05-30 01:44:00,51.1,51.0,30.01,SE,135,0.0,1.6,100,0.00,,,0.03,Rainwise IP-100,2013-05-30 05:44:00,
2013-05-30 01:49:00,51.2,51.0,30.00,SE,135,1.4,1.4,100,0.00,,,0.03,Rainwise IP-100,2013-05-30 05:49:00,
2013-05-30 01:54:00,51.1,51.0,30.00,SE,135,0.0,3.3,100,0.00,,,0.03,Rainwise IP-100,2013-05-30 05:54:00,
2013-05-30 01:59:00,51.0,51.0,30.00,East,90,0.0,1.9,100,0.00,,,0.03,Rainwise IP-100,2013-05-30 05:59:00,
2013-05-30 02:04:00,51.0,51.0,30.01,East,90,0.0,1.4,100,0.00,,,0.03,Rainwise IP-100,2013-05-30 06:04:00,
2013-05-30 02:09:00,50.9,51.0,30.01,SE,135,0.0,2.1,100,0.00,,,0.03,Rainwise IP-100,2013-05-30 06:09:00,
2013-05-30 02:14:00,50.9,51.0,30.00,SE,135,0.0,0.0,100,0.00,,,0.03,Rainwise IP-100,2013-05-30 06:14:00,
2013-05-30 02:19:00,50.9,51.0,30.00,SE,135,0.0,0.0,100,0.00,,,0.03,Rainwise IP-100,2013-05-30 06:19:00,
2013-05-30 02:24:00,50.9,51.0,30.00,East,90,1.2,1.9,100,0.00,,,0.03,Rainwise IP-100,2013-05-30 06:24:00,
2013-05-30 02:29:00,50.8,51.0,30.00,East,90,0.0,1.6,100,0.00,,,0.03,Rainwise IP-100,2013-05-30 06:29:00,
2013-05-30 02:34:00,50.8,51.0,30.00,East,90,0.0,1.2,100,0.00,,,0.03,Rainwise IP-100,2013-05-30 06:34:00,
2013-05-30 02:39:00,50.8,51.0,29.99,East,90,0.0,0.0,100,0.00,,,0.03,Rainwise IP-100,2013-05-30 06:39:00,
2013-05-30 02:44:00,50.9,51.0,30.00,East,90,0.0,0.0,100,0.00,,,0.03,Rainwise IP-100,2013-05-30 06:44:00,
2013-05-30 02:49:00,51.0,51.0,30.00,East,90,0.0,0.0,100,0.00,,,0.03,Rainwise IP-100,2013-05-30 06:49:00,
2013-05-30 02:54:00,51.2,51.0,29.99,ESE,112,4.4,4.4,100,0.00,,,0.03,Rainwise IP-100,2013-05-30 06:54:00,
2013-05-30 02:59:00,51.2,51.0,29.99,SSE,157,1.9,4.4,100,0.00,,,0.03,Rainwise IP-100,2013-05-30 06:59:00,
2013-05-30 03:04:00,51.2,51.0,29.99,South,180,3.0,4.7,100,0.00,,,0.03,Rainwise IP-100,2013-05-30 07:04:00,
2013-05-30 03:09:00,51.4,51.0,29.99,South,180,1.4,3.7,100,0.00,,,0.03,Rainwise IP-100,2013-05-30 07:09:00,
2013-05-30 03:14:00,51.4,51.0,29.99,SSE,157,0.0,2.1,100,0.00,,,0.03,Rainwise IP-100,2013-05-30 07:14:00,
2013-05-30 03:15:00,51.4,51.0,30.00,SSE,157,0.0,2.1,100,0.00,,,0.03,Rainwise IP-100,2013-05-30 07:15:00,
2013-05-30 03:20:00,51.5,52.0,30.00,South,180,1.2,2.6,100,0.00,,,0.03,Rainwise IP-100,2013-05-30 07:20:00,
2013-05-30 03:25:00,51.5,52.0,30.00,SE,135,0.0,3.0,100,0.00,,,0.03,Rainwise IP-100,2013-05-30 07:25:00,
2013-05-30 03:30:00,51.3,51.0,30.00,SE,135,1.9,2.3,100,0.00,,,0.03,Rainwise IP-100,2013-05-30 07:30:00,
2013-05-30 03:35:00,51.0,51.0,30.01,SE,135,2.1,2.6,100,0.00,,,0.03,Rainwise IP-100,2013-05-30 07:35:00,
2013-05-30 03:40:00,50.8,51.0,30.00,ESE,112,1.4,3.0,100,0.00,,,0.03,Rainwise IP-100,2013-05-30 07:40:00,
2013-05-30 03:45:00,50.8,51.0,30.00,ESE,112,2.8,2.8,100,0.00,,,0.03,Rainwise IP-100,2013-05-30 07:45:00,
2013-05-30 03:50:00,50.7,50.5,30.00,ESE,112,0.0,2.8,100,0.00,,,0.03,Rainwise IP-100,2013-05-30 07:50:00,
2013-05-30 03:55:00,50.7,50.5,30.00,ESE,112,0.0,1.9,100,0.00,,,0.03,Rainwise IP-100,2013-05-30 07:55:00,
2013-05-30 04:00:00,50.7,50.5,30.00,ESE,112,0.0,0.0,100,0.00,,,0.03,Rainwise IP-100,2013-05-30 08:00:00,
2013-05-30 04:05:00,50.7,50.5,30.00,ESE,112,0.0,1.6,100,0.00,,,0.03,Rainwise IP-100,2013-05-30 08:05:00,
2013-05-30 04:10:00,50.7,50.5,29.99,SE,135,0.0,3.0,100,0.00,,,0.03,Rainwise IP-100,2013-05-30 08:10:00,
2013-05-30 04:15:00,50.9,51.0,29.99,SSW,202,0.0,1.9,100,0.00,,,0.03,Rainwise IP-100,2013-05-30 08:15:00,
2013-05-30 04:20:00,51.2,51.0,30.00,SSW,202,0.0,0.0,100,0.00,,,0.03,Rainwise IP-100,2013-05-30 08:20:00,
2013-05-30 04:25:00,51.4,51.0,30.00,SSW,202,0.0,0.0,100,0.00,,,0.03,Rainwise IP-100,2013-05-30 08:25:00,
2013-05-30 04:30:00,51.4,51.0,29.99,SSW,202,0.0,0.0,100,0.00,,,0.03,Rainwise IP-100,2013-05-30 08:30:00,
2013-05-30 04:35:00,51.4,51.0,30.00,East,90,1.2,1.9,100,0.00,,,0.03,Rainwise IP-100,2013-05-30 08:35:00,
2013-05-30 04:40:00,51.4,51.0,30.00,East,90,0.0,1.6,100,0.00,,,0.03,Rainwise IP-100,2013-05-30 08:40:00,
2013-05-30 04:45:00,51.4,51.0,29.99,East,90,0.0,0.0,100,0.00,,,0.03,Rainwise IP-100,2013-05-30 08:45:00,
2013-05-30 04:50:00,51.5,52.0,30.00,East,90,0.0,0.0,100,0.00,,,0.03,Rainwise IP-100,2013-05-30 08:50:00,
2013-05-30 04:55:00,51.5,52.0,30.00,East,90,0.0,0.0,100,0.00,,,0.03,Rainwise IP-100,2013-05-30 08:55:00,
2013-05-30 05:00:00,51.6,52.0,30.00,North,0,1.2,0.0,100,0.00,,,0.03,Rainwise IP-100,2013-05-30 09:00:00,
2013-05-30 05:05:00,51.8,52.0,29.99,WNW,292,2.8,4.0,100,0.00,,,0.03,Rainwise IP-100,2013-05-30 09:05:00,
2013-05-30 05:10:00,51.9,52.0,30.00,WNW,292,3.0,4.0,100,0.00,,,0.03,Rainwise IP-100,2013-05-30 09:10:00,
2013-05-30 05:15:00,51.8,52.0,30.00,NW,315,0.0,3.7,100,0.00,,,0.03,Rainwise IP-100,2013-05-30 09:15:00,
2013-05-30 05:20:00,51.9,52.0,29.99,NW,315,0.0,3.0,100,0.00,,,0.03,Rainwise IP-100,2013-05-30 09:20:00,
2013-05-30 05:25:00,52.0,52.0,30.00,NW,315,1.2,2.6,100,0.00,,,0.03,Rainwise IP-100,2013-05-30 09:25:00,
2013-05-30 05:30:00,52.0,52.0,30.00,ESE,112,2.3,4.0,100,0.00,,,0.03,Rainwise IP-100,2013-05-30 09:30:00,
2013-05-30 05:35:00,51.5,52.0,30.00,ESE,112,1.4,5.4,100,0.00,,,0.03,Rainwise IP-100,2013-05-30 09:35:00,
2013-05-30 05:40:00,51.1,51.0,30.00,ESE,112,2.8,4.7,100,0.00,,,0.03,Rainwise IP-100,2013-05-30 09:40:00,
2013-05-30 05:45:00,51.1,51.0,30.00,SSW,202,2.3,4.0,100,0.00,,,0.03,Rainwise IP-100,2013-05-30 09:45:00,
2013-05-30 05:50:00,51.3,51.0,30.00,SSW,202,0.0,2.8,100,0.00,,,0.03,Rainwise IP-100,2013-05-30 09:50:00,
2013-05-30 05:55:00,51.6,52.0,30.00,SSW,202,0.0,0.0,100,0.00,,,0.03,Rainwise IP-100,2013-05-30 09:55:00,
2013-05-30 06:00:00,51.7,52.0,30.00,SE,135,2.6,2.8,100,0.00,,,0.03,Rainwise IP-100,2013-05-30 10:00:00,
2013-05-30 06:05:00,51.5,52.0,30.00,SE,135,3.5,4.0,100,0.00,,,0.03,Rainwise IP-100,2013-05-30 10:05:00,
2013-05-30 06:10:00,51.4,51.0,30.00,South,180,0.0,4.0,100,0.00,,,0.03,Rainwise IP-100,2013-05-30 10:10:00,
2013-05-30 06:15:00,51.5,52.0,30.00,SE,135,1.4,3.3,100,0.00,,,0.03,Rainwise IP-100,2013-05-30 10:15:00,
2013-05-30 06:20:00,51.6,52.0,30.00,SE,135,1.4,4.0,100,0.00,,,0.03,Rainwise IP-100,2013-05-30 10:20:00,
2013-05-30 06:25:00,51.7,52.0,30.00,SSE,157,1.2,2.6,100,0.00,,,0.03,Rainwise IP-100,2013-05-30 10:25:00,
2013-05-30 06:30:00,51.9,52.0,30.00,SSE,157,0.0,2.1,100,0.00,,,0.03,Rainwise IP-100,2013-05-30 10:30:00,
2013-05-30 06:35:00,51.9,52.0,30.00,SE,135,1.6,3.0,100,0.00,,,0.03,Rainwise IP-100,2013-05-30 10:35:00,
2013-05-30 06:40:00,51.8,52.0,30.00,SE,135,0.0,3.3,100,0.00,,,0.03,Rainwise IP-100,2013-05-30 10:40:00,
2013-05-30 06:45:00,51.8,52.0,30.01,SE,135,0.0,0.0,100,0.00,,,0.03,Rainwise IP-100,2013-05-30 10:45:00,
2013-05-30 06:50:00,52.1,52.0,30.00,SE,135,0.0,0.0,100,0.00,,,0.03,Rainwise IP-100,2013-05-30 10:50:00,
2013-05-30 06:55:00,52.5,53.0,30.00,SE,135,0.0,0.0,100,0.00,,,0.03,Rainwise IP-100,2013-05-30 10:55:00,
2013-05-30 07:00:00,52.9,53.0,30.01,East,90,0.0,0.0,100,0.00,,,0.03,Rainwise IP-100,2013-05-30 11:00:00,
2013-05-30 07:05:00,53.1,53.0,30.01,East,90,1.2,1.4,100,0.00,,,0.03,Rainwise IP-100,2013-05-30 11:05:00,
2013-05-30 07:10:00,52.9,53.0,30.00,East,90,0.0,1.9,100,0.00,,,0.03,Rainwise IP-100,2013-05-30 11:10:00,
2013-05-30 07:15:00,53.0,53.0,30.01,East,90,0.0,0.0,100,0.00,,,0.03,Rainwise IP-100,2013-05-30 11:15:00,
2013-05-30 07:20:00,53.5,53.5,30.01,East,90,0.0,0.0,100,0.00,,,0.03,Rainwise IP-100,2013-05-30 11:20:00,
2013-05-30 07:25:00,54.0,54.0,30.01,North,0,1.2,0.0,100,0.00,,,0.03,Rainwise IP-100,2013-05-30 11:25:00,
2013-05-30 07:30:00,54.4,54.5,30.02,NNW,337,0.0,2.1,100,0.00,,,0.03,Rainwise IP-100,2013-05-30 11:30:00,
2013-05-30 07:35:00,54.6,54.5,30.01,NNW,337,0.0,1.6,100,0.00,,,0.03,Rainwise IP-100,2013-05-30 11:35:00,
2013-05-30 07:40:00,54.5,54.5,30.01,ESE,112,2.3,2.3,100,0.00,,,0.03,Rainwise IP-100,2013-05-30 11:40:00,
2013-05-30 07:45:00,53.6,53.5,30.01,SE,135,3.3,5.4,100,0.00,,,0.03,Rainwise IP-100,2013-05-30 11:45:00,
2013-05-30 07:50:00,52.9,53.0,30.02,SE,135,5.6,7.7,100,0.00,,,0.03,Rainwise IP-100,2013-05-30 11:50:00,
2013-05-30 07:55:00,52.8,53.0,30.01,SE,135,4.2,7.9,100,0.00,,,0.03,Rainwise IP-100,2013-05-30 11:55:00,
2013-05-30 08:00:00,53.0,53.0,30.02,SE,135,4.7,6.8,100,0.00,,,0.03,Rainwise IP-100,2013-05-30 12:00:00,
2013-05-30 08:05:00,53.4,53.5,30.02,SE,135,2.6,5.4,100,0.00,,,0.03,Rainwise IP-100,2013-05-30 12:05:00,
2013-05-30 08:10:00,53.6,53.5,30.02,SE,135,2.6,4.2,100,0.00,,,0.03,Rainwise IP-100,2013-05-30 12:10:00,
2013-05-30 08:15:00,53.6,53.5,30.03,ESE,112,2.3,3.3,100,0.00,,,0.03,Rainwise IP-100,2013-05-30 12:15:00,
2013-05-30 08:20:00,53.7,53.5,30.03,ESE,112,1.4,3.0,100,0.00,,,0.03,Rainwise IP-100,2013-05-30 12:20:00,
2013-05-30 08:25:00,53.8,54.0,30.02,ESE,112,2.1,2.3,100,0.00,,,0.03,Rainwise IP-100,2013-05-30 12:25:00,
2013-05-30 08:30:00,54.0,54.0,30.03,ESE,112,2.3,2.3,100,0.00,,,0.03,Rainwise IP-100,2013-05-30 12:30:00,
2013-05-30 08:35:00,53.9,54.0,30.03,ESE,112,1.2,2.8,100,0.00,,,0.03,Rainwise IP-100,2013-05-30 12:35:00,
2013-05-30 08:40:00,53.9,54.0,30.03,ESE,112,3.0,3.5,100,0.00,,,0.03,Rainwise IP-100,2013-05-30 12:40:00,
2013-05-30 08:45:00,54.0,54.0,30.04,SE,135,3.5,5.1,100,0.00,,,0.03,Rainwise IP-100,2013-05-30 12:45:00,
2013-05-30 08:50:00,54.1,54.0,30.03,SE,135,3.3,4.9,100,0.00,,,0.03,Rainwise IP-100,2013-05-30 12:50:00,
2013-05-30 08:55:00,54.7,54.5,30.04,ESE,112,6.1,6.1,100,0.00,,,0.03,Rainwise IP-100,2013-05-30 12:55:00,
2013-05-30 09:00:00,55.0,55.0,30.04,SE,135,5.4,7.9,100,0.00,,,0.03,Rainwise IP-100,2013-05-30 13:00:00,
2013-05-30 09:05:00,54.8,55.0,30.05,ESE,112,5.8,7.7,100,0.00,,,0.03,Rainwise IP-100,2013-05-30 13:05:00,
2013-05-30 09:10:00,54.3,54.5,30.04,East,90,4.2,7.0,100,0.00,,,0.03,Rainwise IP-100,2013-05-30 13:10:00,
2013-05-30 09:15:00,54.4,54.5,30.04,ESE,112,4.9,5.8,100,0.00,,,0.03,Rainwise IP-100,2013-05-30 13:15:00,
2013-05-30 09:20:00,55.1,55.0,30.04,SE,135,4.9,6.1,100,0.00,,,0.03,Rainwise IP-100,2013-05-30 13:20:00,
2013-05-30 09:25:00,55.2,55.0,30.04,ESE,112,2.8,6.3,100,0.00,,,0.03,Rainwise IP-100,2013-05-30 13:25:00,
2013-05-30 09:30:00,55.2,55.0,30.03,ESE,112,4.7,5.8,100,0.00,,,0.03,Rainwise IP-100,2013-05-30 13:30:00,
2013-05-30 09:35:00,55.2,55.0,30.03,ESE,112,4.0,5.1,100,0.00,,,0.03,Rainwise IP-100,2013-05-30 13:35:00,
2013-05-30 09:40:00,55.3,55.0,30.04,ESE,112,5.1,5.6,100,0.00,,,0.03,Rainwise IP-100,2013-05-30 13:40:00,
2013-05-30 09:45:00,55.2,55.0,30.04,ESE,112,4.9,5.6,100,0.00,,,0.03,Rainwise IP-100,2013-05-30 13:45:00,
2013-05-30 09:50:00,55.4,55.0,30.04,SE,135,4.2,6.5,100,0.00,,,0.03,Rainwise IP-100,2013-05-30 13:50:00,
2013-05-30 09:55:00,56.2,56.0,30.03,SSE,157,3.3,6.8,100,0.00,,,0.03,Rainwise IP-100,2013-05-30 13:55:00,
2013-05-30 10:00:00,56.9,57.0,30.03,ESE,112,5.6,5.8,100,0.00,,,0.03,Rainwise IP-100,2013-05-30 14:00:00,
2013-05-30 10:05:00,57.1,57.0,30.03,ESE,112,6.8,8.4,100,0.00,,,0.03,Rainwise IP-100,2013-05-30 14:05:00,
2013-05-30 10:10:00,56.8,57.0,30.04,SE,135,4.4,8.6,100,0.00,,,0.03,Rainwise IP-100,2013-05-30 14:10:00,
2013-05-30 10:15:00,56.8,57.0,30.04,ESE,112,4.9,7.7,100,0.00,,,0.03,Rainwise IP-100,2013-05-30 14:15:00,
2013-05-30 10:20:00,57.0,57.0,30.04,SE,135,4.9,7.5,100,0.00,,,0.03,Rainwise IP-100,2013-05-30 14:20:00,
2013-05-30 10:25:00,57.2,57.0,30.03,ESE,112,7.0,8.4,100,0.00,,,0.03,Rainwise IP-100,2013-05-30 14:25:00,
2013-05-30 10:30:00,57.4,57.5,30.04,ESE,112,4.7,7.9,100,0.00,,,0.03,Rainwise IP-100,2013-05-30 14:30:00,
2013-05-30 10:35:00,57.1,57.0,30.04,ESE,112,4.2,8.2,100,0.00,,,0.03,Rainwise IP-100,2013-05-30 14:35:00,
2013-05-30 10:40:00,57.0,57.0,30.05,SE,135,3.5,7.9,100,0.00,,,0.03,Rainwise IP-100,2013-05-30 14:40:00,
2013-05-30 10:45:00,57.4,57.5,30.04,ESE,112,5.8,8.4,100,0.00,,,0.03,Rainwise IP-100,2013-05-30 14:45:00,
2013-05-30 10:50:00,57.5,57.5,30.04,ESE,112,5.6,7.5,100,0.00,,,0.03,Rainwise IP-100,2013-05-30 14:50:00,
2013-05-30 10:55:00,57.6,57.5,30.03,ESE,112,3.7,7.7,100,0.00,,,0.03,Rainwise IP-100,2013-05-30 14:55:00,
2013-05-30 11:00:00,57.6,57.5,30.04,SE,135,6.1,7.9,100,0.00,,,0.03,Rainwise IP-100,2013-05-30 15:00:00,
2013-05-30 11:05:00,57.6,57.5,30.04,ESE,112,5.6,9.1,100,0.00,,,0.03,Rainwise IP-100,2013-05-30 15:05:00,
2013-05-30 11:10:00,57.8,58.0,30.04,SE,135,5.1,7.9,100,0.00,,,0.03,Rainwise IP-100,2013-05-30 15:10:00,
2013-05-30 11:15:00,58.2,58.0,30.04,ESE,112,5.1,7.5,100,0.00,,,0.03,Rainwise IP-100,2013-05-30 15:15:00,
2013-05-30 11:20:00,58.5,59.0,30.03,ESE,112,4.0,6.3,100,0.00,,,0.03,Rainwise IP-100,2013-05-30 15:20:00,
2013-05-30 11:25:00,58.9,59.0,30.03,SE,135,5.6,5.8,100,0.00,,,0.03,Rainwise IP-100,2013-05-30 15:25:00,
2013-05-30 11:30:00,59.2,59.0,30.03,ESE,112,5.4,6.1,100,0.00,,,0.03,Rainwise IP-100,2013-05-30 15:30:00,
2013-05-30 11:35:00,59.4,59.5,30.03,SE,135,6.1,8.6,100,0.00,,,0.03,Rainwise IP-100,2013-05-30 15:35:00,
2013-05-30 11:40:00,59.4,59.0,30.03,SE,135,3.7,8.2,99,0.00,,,0.03,Rainwise IP-100,2013-05-30 15:40:00,
2013-05-30 11:45:00,59.6,59.0,30.03,SE,135,7.0,9.6,99,0.00,,,0.03,Rainwise IP-100,2013-05-30 15:45:00,
2013-05-30 11:50:00,59.4,59.0,30.03,SE,135,4.2,7.7,99,0.00,,,0.03,Rainwise IP-100,2013-05-30 15:50:00,
2013-05-30 11:55:00,59.8,59.5,30.03,ESE,112,4.2,5.8,99,0.00,,,0.03,Rainwise IP-100,2013-05-30 15:55:00,
2013-05-30 12:00:00,60.5,60.0,30.02,ESE,112,6.3,7.7,98,0.00,,,0.03,Rainwise IP-100,2013-05-30 16:00:00,
2013-05-30 12:05:00,60.6,60.0,30.03,SE,135,4.7,7.9,98,0.00,,,0.03,Rainwise IP-100,2013-05-30 16:05:00,
2013-05-30 12:10:00,60.7,59.5,30.02,SE,135,5.6,7.7,97,0.00,,,0.03,Rainwise IP-100,2013-05-30 16:10:00,
2013-05-30 12:15:00,61.5,60.5,30.02,SSE,157,2.3,7.2,97,0.00,,,0.03,Rainwise IP-100,2013-05-30 16:15:00,
2013-05-30 12:20:00,62.3,61.5,30.02,SSE,157,6.5,7.0,96,0.00,,,0.03,Rainwise IP-100,2013-05-30 16:20:00,
2013-05-30 12:25:00,62.7,61.0,30.02,SE,135,5.1,7.7,95,0.00,,,0.03,Rainwise IP-100,2013-05-30 16:25:00,
2013-05-30 12:30:00,63.2,61.5,30.02,SE,135,5.4,8.2,95,0.00,,,0.03,Rainwise IP-100,2013-05-30 16:30:00,
2013-05-30 12:35:00,63.8,62.5,30.02,SSE,157,5.1,8.2,95,0.00,,,0.03,Rainwise IP-100,2013-05-30 16:35:00,
2013-05-30 12:40:00,64.2,62.0,30.02,ESE,112,3.7,9.6,94,0.00,,,0.03,Rainwise IP-100,2013-05-30 16:40:00,
2013-05-30 12:45:00,64.5,62.5,30.01,SE,135,4.7,8.2,93,0.00,,,0.03,Rainwise IP-100,2013-05-30 16:45:00,
2013-05-30 12:50:00,65.0,63.0,30.01,SE,135,3.5,8.4,93,0.00,,,0.03,Rainwise IP-100,2013-05-30 16:50:00,
2013-05-30 12:55:00,65.8,63.5,30.01,ESE,112,4.0,6.3,92,0.00,,,0.03,Rainwise IP-100,2013-05-30 16:55:00,
2013-05-30 13:00:00,65.8,63.0,30.01,ESE,112,3.7,5.6,91,0.00,,,0.03,Rainwise IP-100,2013-05-30 17:00:00,
2013-05-30 13:05:00,65.4,62.5,30.01,ESE,112,5.1,5.6,91,0.00,,,0.03,Rainwise IP-100,2013-05-30 17:05:00,
2013-05-30 13:10:00,65.5,62.5,30.01,East,90,3.3,5.6,91,0.00,,,0.03,Rainwise IP-100,2013-05-30 17:10:00,
2013-05-30 13:15:00,66.1,63.0,30.00,ESE,112,5.4,5.8,90,0.00,,,0.03,Rainwise IP-100,2013-05-30 17:15:00,
2013-05-30 13:20:00,66.5,63.5,30.01,ESE,112,3.0,5.6,89,0.00,,,0.03,Rainwise IP-100,2013-05-30 17:20:00,
2013-05-30 13:25:00,66.4,62.5,30.01,ENE,67,4.0,5.4,88,0.00,,,0.03,Rainwise IP-100,2013-05-30 17:25:00,
2013-05-30 13:30:00,67.2,63.5,30.01,ENE,67,1.2,6.8,88,0.00,,,0.03,Rainwise IP-100,2013-05-30 17:30:00,
2013-05-30 13:35:00,68.2,63.5,30.00,East,90,4.2,6.8,86,0.00,,,0.03,Rainwise IP-100,2013-05-30 17:35:00,
2013-05-30 13:40:00,66.8,62.0,30.00,SE,135,3.7,7.5,85,0.00,,,0.03,Rainwise IP-100,2013-05-30 17:40:00,
2013-05-30 13:45:00,65.9,62.0,30.00,SE,135,6.1,6.3,87,0.00,,,0.03,Rainwise IP-100,2013-05-30 17:45:00,
2013-05-30 13:50:00,65.9,62.0,30.00,ESE,112,3.7,6.5,88,0.00,,,0.03,Rainwise IP-100,2013-05-30 17:50:00,
2013-05-30 13:55:00,65.4,61.5,30.00,ESE,112,2.8,6.1,88,0.00,,,0.03,Rainwise IP-100,2013-05-30 17:55:00,
2013-05-30 14:00:00,65.8,62.0,29.99,ESE,112,3.0,6.5,87,0.00,,,0.03,Rainwise IP-100,2013-05-30 18:00:00,
2013-05-30 14:05:00,66.4,62.5,29.99,ENE,67,0.0,4.7,87,0.00,,,0.03,Rainwise IP-100,2013-05-30 18:05:00,
2013-05-30 14:10:00,67.5,63.0,29.99,East,90,2.8,3.7,86,0.00,,,0.03,Rainwise IP-100,2013-05-30 18:10:00,
2013-05-30 14:15:00,68.3,63.5,30.00,ESE,112,3.0,5.1,84,0.00,,,0.03,Rainwise IP-100,2013-05-30 18:15:00,
2013-05-30 14:20:00,68.9,63.0,29.99,West,270,0.0,3.5,82,0.00,,,0.03,Rainwise IP-100,2013-05-30 18:20:00,
2013-05-30 14:25:00,70.9,65.0,29.99,East,90,4.4,7.7,82,0.00,,,0.03,Rainwise IP-100,2013-05-30 18:25:00,
2013-05-30 14:30:00,70.7,63.5,29.99,SE,135,1.9,6.8,79,0.00,,,0.03,Rainwise IP-100,2013-05-30 18:30:00,
2013-05-30 14:35:00,70.6,63.5,29.99,NW,315,0.0,7.0,78,0.00,,,0.03,Rainwise IP-100,2013-05-30 18:35:00,
2013-05-30 14:40:00,74.4,66.7,29.99,WNW,292,3.0,12.6,77,0.00,,,0.03,Rainwise IP-100,2013-05-30 18:40:00,
2013-05-30 14:45:00,78.2,69.0,30.00,NNW,337,5.1,9.8,72,0.00,,,0.03,Rainwise IP-100,2013-05-30 18:45:00,
2013-05-30 14:50:00,80.4,68.5,29.99,NW,315,4.7,13.8,67,0.00,,,0.03,Rainwise IP-100,2013-05-30 18:50:00,
2013-05-30 14:55:00,81.1,67.5,29.98,NE,45,0.0,15.6,64,0.00,,,0.03,Rainwise IP-100,2013-05-30 18:55:00,
2013-05-30 15:00:00,81.6,67.5,29.98,ENE,67,1.9,9.1,62,0.00,,,0.03,Rainwise IP-100,2013-05-30 19:00:00,
2013-05-30 15:05:00,79.4,64.0,29.99,ESE,112,3.0,7.9,59,0.00,,,0.03,Rainwise IP-100,2013-05-30 19:05:00,
2013-05-30 15:10:00,75.1,61.0,29.98,ESE,112,4.4,6.1,61,0.00,,,0.03,Rainwise IP-100,2013-05-30 19:10:00,
2013-05-30 15:15:00,71.8,59.5,29.98,SE,135,4.0,5.6,66,0.00,,,0.03,Rainwise IP-100,2013-05-30 19:15:00,
2013-05-30 15:20:00,69.0,59.0,29.98,East,90,4.4,8.4,71,0.00,,,0.03,Rainwise IP-100,2013-05-30 19:20:00,
2013-05-30 15:25:00,65.9,57.0,29.98,SE,135,4.4,5.4,74,0.00,,,0.03,Rainwise IP-100,2013-05-30 19:25:00,
2013-05-30 15:30:00,65.8,59.0,29.98,SE,135,4.7,5.4,78,0.00,,,0.03,Rainwise IP-100,2013-05-30 19:30:00,
2013-05-30 15:35:00,67.9,61.0,29.98,SE,135,4.9,8.6,78,0.00,,,0.03,Rainwise IP-100,2013-05-30 19:35:00,
2013-05-30 15:40:00,69.1,60.5,29.99,ESE,112,4.0,6.5,75,0.00,,,0.03,Rainwise IP-100,2013-05-30 19:40:00,
2013-05-30 15:45:00,69.0,60.5,29.98,SE,135,4.2,5.6,75,0.00,,,0.03,Rainwise IP-100,2013-05-30 19:45:00,
2013-05-30 15:50:00,69.1,60.5,29.98,ESE,112,1.4,4.4,75,0.00,,,0.03,Rainwise IP-100,2013-05-30 19:50:00,
2013-05-30 15:55:00,69.9,61.5,29.98,SE,135,3.0,4.9,74,0.00,,,0.03,Rainwise IP-100,2013-05-30 19:55:00,
2013-05-30 16:00:00,69.1,60.5,29.98,ESE,112,4.9,5.6,74,0.00,,,0.03,Rainwise IP-100,2013-05-30 20:00:00,
2013-05-30 16:05:00,67.1,59.0,29.98,SE,135,2.8,8.2,75,0.00,,,0.03,Rainwise IP-100,2013-05-30 20:05:00,
2013-05-30 16:10:00,66.9,60.0,29.98,ESE,112,0.0,3.3,77,0.00,,,0.03,Rainwise IP-100,2013-05-30 20:10:00,
2013-05-30 16:15:00,69.1,61.5,29.98,ESE,112,1.4,1.9,78,0.00,,,0.03,Rainwise IP-100,2013-05-30 20:15:00,
2013-05-30 16:20:00,70.5,62.0,29.98,East,90,2.3,3.5,75,0.00,,,0.03,Rainwise IP-100,2013-05-30 20:20:00,
2013-05-30 16:25:00,69.5,60.0,29.98,SE,135,5.4,6.8,71,0.00,,,0.03,Rainwise IP-100,2013-05-30 20:25:00,
2013-05-30 16:30:00,67.6,59.0,29.98,SE,135,2.6,7.2,73,0.00,,,0.03,Rainwise IP-100,2013-05-30 20:30:00,
2013-05-30 16:35:00,67.2,59.5,29.98,SE,135,3.0,5.4,76,0.00,,,0.03,Rainwise IP-100,2013-05-30 20:35:00,
2013-05-30 16:40:00,67.8,60.0,29.98,SSE,157,1.9,3.5,76,0.00,,,0.03,Rainwise IP-100,2013-05-30 20:40:00,
2013-05-30 16:45:00,69.7,62.0,29.97,West,270,10.0,10.7,77,0.00,,,0.03,Rainwise IP-100,2013-05-30 20:45:00,
2013-05-30 16:50:00,72.6,63.5,29.98,East,90,0.0,10.0,73,0.00,,,0.03,Rainwise IP-100,2013-05-30 20:50:00,
2013-05-30 16:55:00,72.6,61.5,29.98,SE,135,0.0,2.8,68,0.00,,,0.03,Rainwise IP-100,2013-05-30 20:55:00,
2013-05-30 17:00:00,71.5,60.5,29.98,West,270,1.6,6.5,68,0.00,,,0.03,Rainwise IP-100,2013-05-30 21:00:00,
2013-05-30 17:05:00,73.8,63.0,29.97,WSW,247,1.6,10.5,69,0.00,,,0.03,Rainwise IP-100,2013-05-30 21:05:00,
2013-05-30 17:10:00,76.9,65.5,29.98,NNE,22,1.4,9.6,67,0.00,,,0.03,Rainwise IP-100,2013-05-30 21:10:00,
2013-05-30 17:15:00,78.0,65.5,29.97,WNW,292,5.6,9.1,65,0.00,,,0.03,Rainwise IP-100,2013-05-30 21:15:00,
2013-05-30 17:20:00,78.8,65.5,29.98,WNW,292,5.6,9.3,64,0.00,,,0.03,Rainwise IP-100,2013-05-30 21:20:00,
2013-05-30 17:25:00,79.9,66.3,29.98,West,270,4.4,7.9,63,0.00,,,0.03,Rainwise IP-100,2013-05-30 21:25:00,
2013-05-30 17:30:00,80.3,66.0,29.98,West,270,5.8,9.3,62,0.00,,,0.03,Rainwise IP-100,2013-05-30 21:30:00,
2013-05-30 17:35:00,80.2,66.0,29.98,West,270,5.6,11.2,62,0.00,,,0.03,Rainwise IP-100,2013-05-30 21:35:00,
2013-05-30 17:40:00,80.0,66.0,29.98,WSW,247,6.8,11.0,62,0.00,,,0.03,Rainwise IP-100,2013-05-30 21:40:00,
2013-05-30 17:45:00,79.8,65.0,29.98,West,270,7.7,10.7,61,0.00,,,0.03,Rainwise IP-100,2013-05-30 21:45:00,
2013-05-30 17:50:00,79.6,65.0,29.98,WNW,292,4.7,10.5,61,0.00,,,0.03,Rainwise IP-100,2013-05-30 21:50:00,
2013-05-30 17:55:00,79.5,65.0,29.98,WSW,247,7.5,11.9,61,0.00,,,0.03,Rainwise IP-100,2013-05-30 21:55:00,
2013-05-30 18:00:00,79.4,65.0,29.98,West,270,7.0,11.9,61,0.00,,,0.03,Rainwise IP-100,2013-05-30 22:00:00,
2013-05-30 18:05:00,79.2,65.0,29.98,West,270,5.6,12.4,61,0.00,,,0.03,Rainwise IP-100,2013-05-30 22:05:00,
2013-05-30 18:10:00,79.1,64.5,29.98,WSW,247,6.1,13.1,61,0.00,,,0.03,Rainwise IP-100,2013-05-30 22:10:00,
2013-05-30 18:15:00,79.2,65.0,29.98,West,270,8.6,9.6,61,0.00,,,0.03,Rainwise IP-100,2013-05-30 22:15:00,
2013-05-30 18:20:00,79.4,65.0,29.98,West,270,6.5,12.6,61,0.00,,,0.03,Rainwise IP-100,2013-05-30 22:20:00,
2013-05-30 18:25:00,79.2,65.0,29.98,WNW,292,4.4,11.2,61,0.00,,,0.03,Rainwise IP-100,2013-05-30 22:25:00,
2013-05-30 18:30:00,79.1,64.5,29.98,West,270,7.2,12.8,61,0.00,,,0.03,Rainwise IP-100,2013-05-30 22:30:00,
2013-05-30 18:35:00,79.1,64.5,29.98,WSW,247,6.3,10.3,61,0.00,,,0.03,Rainwise IP-100,2013-05-30 22:35:00,
2013-05-30 18:40:00,79.3,65.5,29.99,WSW,247,3.3,8.9,62,0.00,,,0.03,Rainwise IP-100,2013-05-30 22:40:00,
2013-05-30 18:45:00,79.4,65.5,29.99,WNW,292,6.5,10.0,62,0.00,,,0.03,Rainwise IP-100,2013-05-30 22:45:00,
2013-05-30 18:50:00,79.4,64.5,29.99,WNW,292,5.8,10.3,60,0.00,,,0.03,Rainwise IP-100,2013-05-30 22:50:00,
2013-05-30 18:55:00,79.4,64.5,29.98,WNW,292,6.8,10.7,60,0.00,,,0.03,Rainwise IP-100,2013-05-30 22:55:00,
2013-05-30 19:00:00,79.1,64.0,29.99,West,270,8.4,9.6,60,0.00,,,0.03,Rainwise IP-100,2013-05-30 23:00:00,
2013-05-30 19:05:00,78.8,64.0,29.99,West,270,4.4,12.1,61,0.00,,,0.03,Rainwise IP-100,2013-05-30 23:05:00,
2013-05-30 19:10:00,78.5,64.0,29.99,West,270,12.1,12.1,61,0.00,,,0.03,Rainwise IP-100,2013-05-30 23:10:00,
2013-05-30 19:15:00,78.1,63.5,29.99,West,270,5.4,12.6,61,0.00,,,0.03,Rainwise IP-100,2013-05-30 23:15:00,
2013-05-30 19:20:00,78.0,64.0,29.99,West,270,4.9,9.6,62,0.00,,,0.03,Rainwise IP-100,2013-05-30 23:20:00,
2013-05-30 19:25:00,77.9,64.0,29.99,West,270,4.7,9.6,62,0.00,,,0.03,Rainwise IP-100,2013-05-30 23:25:00,
2013-05-30 19:30:00,77.7,64.0,29.99,West,270,5.4,10.0,62,0.00,,,0.03,Rainwise IP-100,2013-05-30 23:30:00,
2013-05-30 19:35:00,77.4,63.5,29.99,West,270,7.2,12.1,62,0.00,,,0.03,Rainwise IP-100,2013-05-30 23:35:00,
2013-05-30 19:40:00,77.1,63.0,30.00,WNW,292,4.2,9.8,62,0.00,,,0.03,Rainwise IP-100,2013-05-30 23:40:00,
2013-05-30 19:45:00,76.9,63.0,30.00,NW,315,3.7,7.5,62,0.00,,,0.03,Rainwise IP-100,2013-05-30 23:45:00,
2013-05-30 19:50:00,76.8,63.0,30.00,West,270,6.5,9.3,62,0.00,,,0.03,Rainwise IP-100,2013-05-30 23:50:00,
2013-05-30 19:55:00,76.6,62.5,30.00,SW,225,5.6,9.8,62,0.00,,,0.03,Rainwise IP-100,2013-05-30 23:55:00,
2013-05-30 20:00:00,76.4,62.5,30.00,West,270,2.1,11.0,62,0.00,,,0.03,Rainwise IP-100,2013-05-31 00:00:00,
2013-05-30 20:05:00,76.2,62.0,30.00,West,270,4.0,7.2,62,0.00,,,0.03,Rainwise IP-100,2013-05-31 00:05:00,
2013-05-30 20:10:00,75.1,61.5,30.00,ESE,112,3.7,7.0,63,0.00,,,0.03,Rainwise IP-100,2013-05-31 00:10:00,
2013-05-30 20:15:00,72.0,60.0,30.00,SE,135,4.7,6.5,66,0.00,,,0.03,Rainwise IP-100,2013-05-31 00:15:00,
2013-05-30 20:20:00,69.5,60.0,30.01,ESE,112,1.4,5.1,71,0.00,,,0.03,Rainwise IP-100,2013-05-31 00:20:00,
2013-05-30 20:25:00,68.8,60.5,30.01,ESE,112,5.1,7.5,74,0.00,,,0.03,Rainwise IP-100,2013-05-31 00:25:00,
2013-05-30 20:30:00,68.2,60.0,30.02,SE,135,4.0,5.6,75,0.00,,,0.03,Rainwise IP-100,2013-05-31 00:30:00,
2013-05-30 20:35:00,67.9,60.0,30.02,SE,135,3.5,4.2,76,0.00,,,0.03,Rainwise IP-100,2013-05-31 00:35:00,
2013-05-30 20:40:00,67.8,60.5,30.02,SE,135,2.1,4.2,77,0.00,,,0.03,Rainwise IP-100,2013-05-31 00:40:00,
2013-05-30 20:45:00,67.5,60.5,30.02,SE,135,1.4,3.7,78,0.00,,,0.03,Rainwise IP-100,2013-05-31 00:45:00,
2013-05-30 20:50:00,67.0,60.5,30.02,SE,135,2.6,2.6,79,0.00,,,0.03,Rainwise IP-100,2013-05-31 00:50:00,
2013-05-30 20:55:00,66.6,60.5,30.02,SE,135,1.9,2.8,80,0.00,,,0.03,Rainwise IP-100,2013-05-31 00:55:00,
2013-05-30 21:00:00,66.5,60.5,30.02,SE,135,0.0,3.0,81,0.00,,,0.03,Rainwise IP-100,2013-05-31 01:00:00,
2013-05-30 21:05:00,66.2,60.5,30.02,SE,135,1.6,4.4,81,0.00,,,0.03,Rainwise IP-100,2013-05-31 01:05:00,
2013-05-30 21:10:00,66.2,60.0,30.02,SE,135,0.0,4.0,80,0.00,,,0.03,Rainwise IP-100,2013-05-31 01:10:00,
2013-05-30 21:15:00,66.3,60.5,30.02,SE,135,0.0,0.0,81,0.00,,,0.03,Rainwise IP-100,2013-05-31 01:15:00,
2013-05-30 21:20:00,66.4,60.5,30.03,SE,135,0.0,0.0,81,0.00,,,0.03,Rainwise IP-100,2013-05-31 01:20:00,
2013-05-30 21:25:00,66.2,60.5,30.02,SE,135,2.6,2.8,81,0.00,,,0.03,Rainwise IP-100,2013-05-31 01:25:00,
2013-05-30 21:30:00,65.2,59.0,30.02,ESE,112,3.7,4.2,81,0.00,,,0.03,Rainwise IP-100,2013-05-31 01:30:00,
2013-05-30 21:35:00,64.2,59.0,30.02,SSE,157,2.1,4.9,83,0.00,,,0.03,Rainwise IP-100,2013-05-31 01:35:00,
2013-05-30 21:40:00,64.1,59.5,30.02,SSE,157,0.0,2.6,85,0.00,,,0.03,Rainwise IP-100,2013-05-31 01:40:00,
2013-05-30 21:45:00,64.4,60.0,30.03,SSE,157,0.0,1.9,85,0.00,,,0.03,Rainwise IP-100,2013-05-31 01:45:00,
2013-05-30 21:50:00,64.4,59.5,30.03,North,0,1.4,2.3,84,0.00,,,0.03,Rainwise IP-100,2013-05-31 01:50:00,
2013-05-30 21:55:00,64.2,59.0,30.03,North,0,1.9,1.9,84,0.00,,,0.03,Rainwise IP-100,2013-05-31 01:55:00,
2013-05-30 22:00:00,63.9,59.0,30.03,WNW,292,1.2,2.8,84,0.00,,,0.03,Rainwise IP-100,2013-05-31 02:00:00,
2013-05-30 22:05:00,63.2,57.5,30.03,West,270,0.0,2.6,83,0.00,,,0.03,Rainwise IP-100,2013-05-31 02:05:00,
2013-05-30 22:10:00,62.5,57.0,30.03,SE,135,0.0,1.6,83,0.00,,,0.03,Rainwise IP-100,2013-05-31 02:10:00,
2013-05-30 22:15:00,62.2,57.0,30.03,SW,225,0.0,2.3,84,0.00,,,0.03,Rainwise IP-100,2013-05-31 02:15:00,
2013-05-30 22:20:00,62.5,58.0,30.03,SW,225,0.0,0.0,86,0.00,,,0.03,Rainwise IP-100,2013-05-31 02:20:00,
2013-05-30 22:25:00,62.8,59.0,30.03,North,0,0.0,3.5,87,0.00,,,0.03,Rainwise IP-100,2013-05-31 02:25:00,
2013-05-30 22:30:00,62.6,58.0,30.04,WSW,247,1.9,2.3,86,0.00,,,0.03,Rainwise IP-100,2013-05-31 02:30:00,
2013-05-30 22:35:00,62.2,57.5,30.04,NNE,22,0.0,2.8,85,0.00,,,0.03,Rainwise IP-100,2013-05-31 02:35:00,
2013-05-30 22:40:00,61.8,57.5,30.04,NNE,22,0.0,0.0,86,0.00,,,0.03,Rainwise IP-100,2013-05-31 02:40:00,
2013-05-30 22:45:00,61.8,58.0,30.04,WNW,292,0.0,1.4,87,0.00,,,0.03,Rainwise IP-100,2013-05-31 02:45:00,
2013-05-30 22:50:00,62.1,58.0,30.03,WNW,292,0.0,0.0,88,0.00,,,0.03,Rainwise IP-100,2013-05-31 02:50:00,
2013-05-30 22:55:00,62.1,59.0,30.03,WNW,292,0.0,0.0,89,0.00,,,0.03,Rainwise IP-100,2013-05-31 02:55:00,
2013-05-30 23:00:00,62.2,59.0,30.04,WNW,292,0.0,0.0,89,0.00,,,0.03,Rainwise IP-100,2013-05-31 03:00:00,
2013-05-30 23:05:00,62.1,59.0,30.03,WNW,292,0.0,0.0,89,0.00,,,0.03,Rainwise IP-100,2013-05-31 03:05:00,
2013-05-30 23:10:00,62.0,59.0,30.03,WNW,292,0.0,0.0,89,0.00,,,0.03,Rainwise IP-100,2013-05-31 03:10:00,
2013-05-30 23:15:00,62.0,59.0,30.04,WNW,292,0.0,0.0,90,0.00,,,0.03,Rainwise IP-100,2013-05-31 03:15:00,
2013-05-30 23:20:00,62.3,60.0,30.04,WNW,292,0.0,0.0,91,0.00,,,0.03,Rainwise IP-100,2013-05-31 03:20:00,
2013-05-30 23:25:00,62.4,60.0,30.04,NE,45,0.0,2.1,92,0.00,,,0.03,Rainwise IP-100,2013-05-31 03:25:00,
2013-05-30 23:30:00,62.3,60.0,30.04,NE,45,0.0,0.0,92,0.00,,,0.03,Rainwise IP-100,2013-05-31 03:30:00,
2013-05-30 23:35:00,62.2,60.0,30.04,NE,45,0.0,0.0,92,0.00,,,0.03,Rainwise IP-100,2013-05-31 03:35:00,
2013-05-30 23:40:00,62.0,60.0,30.04,NE,45,0.0,0.0,92,0.00,,,0.03,Rainwise IP-100,2013-05-31 03:40:00,
2013-05-30 23:45:00,61.8,60.0,30.04,NNW,337,1.4,1.9,92,0.00,,,0.03,Rainwise IP-100,2013-05-31 03:45:00,
2013-05-30 23:50:00,61.8,60.0,30.04,NW,315,2.8,2.8,92,0.00,,,0.03,Rainwise IP-100,2013-05-31 03:50:00,
2013-05-30 23:55:00,62.0,60.0,30.04,WNW,292,3.5,3.5,92,0.00,,,0.03,Rainwise IP-100,2013-05-31 03:55:00,